Location: Unspecified
(0.0000°N, 0.0000°E)
Time: 12:51:35
(UTC+00:00)

HST - Visible Passes

Search period start: 27 August 2014 00:00
Search period end: 06 September 2014 00:00
Orbit: 547 x 551 km, 28.5° (Epoch: 27 August)

Date Brightness Start Highest point End Pass type
(mag) Time Alt. Az. Time Alt. Az. Time Alt. Az.
27 Aug 3.3 19:58:03 10° SW 19:58:54 15° SW 19:58:54 15° SW visible
28 Aug 2.5 19:50:59 10° SW 19:53:02 28° SW 19:53:02 28° SW visible
29 Aug 1.5 19:44:03 10° WSW 19:47:14 50° WSW 19:47:14 50° WSW visible
30 Aug 1.4 19:37:16 10° WSW 19:41:19 50° NNW 19:41:28 50° NNW visible
31 Aug 2.2 19:30:38 10° W 19:34:25 33° NNW 19:35:42 27° N visible
01 Sep 2.9 19:24:13 10° W 19:27:32 23° NNW 19:29:54 14° NNE visible
02 Sep 3.5 04:00:22 12° NNE 04:01:05 12° NNE 04:02:49 10° NE visible
02 Sep 3.4 19:18:04 10° WNW 19:20:39 16° NNW 19:23:14 10° N visible
03 Sep 3.3 03:54:36 17° NE 03:54:36 17° NE 03:57:04 10° ENE visible
03 Sep 0.8 05:31:30 10° WNW 05:35:41 77° SSW 05:39:53 10° SE visible
03 Sep 3.6 19:12:37 10° NW 19:13:49 11° NNW 19:15:00 10° N visible
04 Sep 3.2 03:48:50 20° ENE 03:48:50 20° ENE 03:50:50 10° E visible
04 Sep 1.1 05:24:42 10° WNW 05:28:46 49° SSW 05:32:50 10° SE visible
05 Sep 3.5 03:43:01 18° E 03:43:01 18° E 03:44:20 10° E visible
05 Sep 1.7 05:18:38 13° W 05:21:51 33° SSW 05:25:39 10° SE visible
